| time (UTC) | temp F | wind direction | speed MPH | gust MPH | rain 1hr in | rain 24hr in | rain mn in | humidity % | barometer mb |
| 20260509214542 | 94 | 108 | 0.0 | 3.0 | 0.00 | 0.00 | 0.00 | 9 | 1003.3 |
| 20260509214030 | 94 | 98 | 1.0 | 5.0 | 0.00 | 0.00 | 0.00 | 8 | 1003.3 |
| 20260509213539 | 95 | 104 | 2.0 | 5.0 | 0.00 | 0.00 | 0.00 | 8 | 1003.5 |
| 20260509213032 | 95 | 342 | 0.0 | 9.0 | 0.00 | 0.00 | 0.00 | 9 | 1003.6 |
| 20260509212526 | 94 | 131 | 5.0 | 9.0 | 0.00 | 0.00 | 0.00 | 9 | 1003.6 |
| 20260509212038 | 94 | 106 | 1.0 | 7.0 | 0.00 | 0.00 | 0.00 | 9 | 1003.7 |
| 20260509211532 | 95 | 113 | 2.0 | 6.0 | 0.00 | 0.00 | 0.00 | 9 | 1003.9 |
| 20260509211027 | 95 | 113 | 2.0 | 7.0 | 0.00 | 0.00 | 0.00 | 9 | 1004.0 |
| 20260509210523 | 95 | 159 | 3.0 | 7.0 | 0.00 | 0.00 | 0.00 | 9 | 1004.1 |
| 20260509210034 | 96 | 118 | 0.0 | 6.0 | 0.00 | 0.00 | 0.00 | 10 | 1004.2 |
| 20260509205527 | 95 | 105 | 1.0 | 6.0 | 0.00 | 0.00 | 0.00 | 9 | 1004.3 |
| 20260509205022 | 96 | 113 | 2.0 | 6.0 | 0.00 | 0.00 | 0.00 | 9 | 1004.3 |
| 20260509204536 | 95 | 116 | 2.0 | 7.0 | 0.00 | 0.00 | 0.00 | 10 | 1004.5 |
| 20260509204026 | 95 | 103 | 1.0 | 6.0 | 0.00 | 0.00 | 0.00 | 9 | 1004.5 |
| 20260509203536 | 94 | 113 | 1.0 | 5.0 | 0.00 | 0.00 | 0.00 | 9 | 1004.7 |
| 20260509203027 | 96 | 113 | 0.0 | 6.0 | 0.00 | 0.00 | 0.00 | 9 | 1004.8 |
| 20260509202521 | 95 | 205 | 1.0 | 9.0 | 0.00 | 0.00 | 0.00 | 9 | 1005.0 |
| 20260509202032 | 94 | 215 | 1.0 | 9.0 | 0.00 | 0.00 | 0.00 | 11 | 1005.1 |
| 20260509201528 | 94 | 176 | 2.0 | 8.0 | 0.00 | 0.00 | 0.00 | 10 | 1005.0 |
| 20260509201023 | 94 | 143 | 2.0 | 7.0 | 0.00 | 0.00 | 0.00 | 11 | 1005.2 |
| 20260509200533 | 93 | 203 | 0.0 | 7.0 | 0.00 | 0.00 | 0.00 | 12 | 1005.4 |
| 20260509200031 | 94 | 120 | 3.0 | 7.0 | 0.00 | 0.00 | 0.00 | 10 | 1005.5 |
| 20260509195526 | 94 | 159 | 1.0 | 5.0 | 0.00 | 0.00 | 0.00 | 10 | 1005.5 |
| 20260509195020 | 94 | 113 | 2.0 | 6.0 | 0.00 | 0.00 | 0.00 | 10 | 1005.6 |
| 20260509194533 | 94 | 127 | 1.0 | 6.0 | 0.00 | 0.00 | 0.00 | 12 | 1005.7 |
| 20260509194028 | 94 | 141 | 0.0 | 4.0 | 0.00 | 0.00 | 0.00 | 12 | 1005.8 |
| 20260509193533 | 94 | 135 | 1.0 | 4.0 | 0.00 | 0.00 | 0.00 | 12 | 1005.9 |
| 20260509193031 | 93 | 290 | 0.0 | 4.0 | 0.00 | 0.00 | 0.00 | 13 | 1006.0 |
| 20260509192521 | 93 | 165 | 1.0 | 4.0 | 0.00 | 0.00 | 0.00 | 12 | 1006.0 |
| 20260509192033 | 93 | 145 | 1.0 | 4.0 | 0.00 | 0.00 | 0.00 | 12 | 1006.1 |
| 20260509191539 | 93 | 242 | 1.0 | 4.0 | 0.00 | 0.00 | 0.00 | 13 | 1006.2 |
| 20260509191023 | 92 | 228 | 0.0 | 5.0 | 0.00 | 0.00 | 0.00 | 12 | 1006.3 |
| 20260509190536 | 92 | 127 | 2.0 | 5.0 | 0.00 | 0.00 | 0.00 | 12 | 1006.3 |
| 20260509190032 | 92 | 356 | 1.0 | 3.0 | 0.00 | 0.00 | 0.00 | 11 | 1006.3 |
| 20260509185525 | 92 | 125 | 1.0 | 3.0 | 0.00 | 0.00 | 0.00 | 12 | 1006.5 |
| 20260509185123 | 92 | 248 | 0.0 | 3.0 | 0.00 | 0.00 | 0.00 | 12 | 1006.5 |
| 20260509184543 | 92 | 200 | 0.0 | 4.0 | 0.00 | 0.00 | 0.00 | 12 | 1006.6 |
| 20260509184023 | 90 | 218 | 0.0 | 3.0 | 0.00 | 0.00 | 0.00 | 12 | 1006.7 |
| 20260509183533 | 89 | 323 | 0.0 | 2.0 | 0.00 | 0.00 | 0.00 | 13 | 1006.8 |
| 20260509183043 | 90 | 108 | 0.0 | 2.0 | 0.00 | 0.00 | 0.00 | 12 | 1006.9 |
| 20260509182523 | 89 | 135 | 1.0 | 4.0 | 0.00 | 0.00 | 0.00 | 14 | 1006.9 |
| 20260509182032 | 90 | 131 | 1.0 | 4.0 | 0.00 | 0.00 | 0.00 | 14 | 1007.1 |
| 20260509181529 | 91 | 109 | 1.0 | 3.0 | 0.00 | 0.00 | 0.00 | 13 | 1007.2 |
| 20260509181025 | 90 | 228 | 0.0 | 2.0 | 0.00 | 0.00 | 0.00 | 14 | 1007.2 |
| 20260509180533 | 89 | 160 | 0.0 | 2.0 | 0.00 | 0.00 | 0.00 | 13 | 1007.2 |
| 20260509180032 | 89 | 266 | 0.0 | 1.0 | 0.00 | 0.00 | 0.00 | 14 | 1007.5 |
| 20260509175527 | 88 | 45 | 0.0 | 3.0 | 0.00 | 0.00 | 0.00 | 14 | 1007.5 |
| 20260509175034 | 87 | 158 | 0.0 | 3.0 | 0.00 | 0.00 | 0.00 | 16 | 1007.6 |
| 20260509174528 | 86 | 22 | 0.0 | 2.0 | 0.00 | 0.00 | 0.00 | 15 | 1007.6 |
| 20260509174026 | 85 | 238 | 0.0 | 2.0 | 0.00 | 0.00 | 0.00 | 16 | 1007.7 |
| 20260509173536 | 85 | 128 | 0.0 | 3.0 | 0.00 | 0.00 | 0.00 | 16 | 1007.6 |
| 20260509173030 | 85 | 120 | 2.0 | 3.0 | 0.00 | 0.00 | 0.00 | 17 | 1007.8 |
| 20260509172527 | 85 | 116 | 0.0 | 2.0 | 0.00 | 0.00 | 0.00 | 17 | 1007.7 |
| 20260509172021 | 84 | 79 | 0.0 | 3.0 | 0.00 | 0.00 | 0.00 | 17 | 1007.8 |
| 20260509171533 | 84 | 90 | 1.0 | 3.0 | 0.00 | 0.00 | 0.00 | 17 | 1007.8 |
| 20260509171027 | 83 | 29 | 0.0 | 3.0 | 0.00 | 0.00 | 0.00 | 17 | 1007.9 |
| 20260509170527 | 82 | 152 | 0.0 | 4.0 | 0.00 | 0.00 | 0.00 | 18 | 1008.0 |
| 20260509170035 | 81 | 158 | 1.0 | 4.0 | 0.00 | 0.00 | 0.00 | 19 | 1008.0 |
| 20260509165527 | 80 | 101 | 1.0 | 3.0 | 0.00 | 0.00 | 0.00 | 20 | 1008.0 |
| 20260509165040 | 80 | 131 | 1.0 | 4.0 | 0.00 | 0.00 | 0.00 | 19 | 1008.0 |
| 20260509164530 | 80 | 113 | 0.0 | 4.0 | 0.00 | 0.00 | 0.00 | 20 | 1008.1 |
| 20260509164024 | 79 | 150 | 0.0 | 5.0 | 0.00 | 0.00 | 0.00 | 22 | 1008.1 |
| 20260509163537 | 78 | 137 | 2.0 | 5.0 | 0.00 | 0.00 | 0.00 | 22 | 1008.2 |
| 20260509163039 | 78 | 124 | 1.0 | 4.0 | 0.00 | 0.00 | 0.00 | 22 | 1008.2 |
| 20260509162526 | 78 | 110 | 0.0 | 3.0 | 0.00 | 0.00 | 0.00 | 21 | 1008.1 |
| 20260509162023 | 78 | 125 | 0.0 | 3.0 | 0.00 | 0.00 | 0.00 | 22 | 1008.2 |
| 20260509161532 | 77 | 201 | 0.0 | 3.0 | 0.00 | 0.00 | 0.00 | 23 | 1008.2 |
| 20260509161032 | 77 | 232 | 0.0 | 3.0 | 0.00 | 0.00 | 0.00 | 24 | 1008.3 |
| 20260509160524 | 76 | 184 | 0.0 | 3.0 | 0.00 | 0.00 | 0.00 | 24 | 1008.4 |
| 20260509160036 | 75 | 153 | 0.0 | 3.0 | 0.00 | 0.00 | 0.00 | 25 | 1008.4 |
| 20260509155529 | 74 | 135 | 1.0 | 3.0 | 0.00 | 0.00 | 0.00 | 26 | 1008.4 |
| 20260509155023 | 73 | 112 | 0.0 | 4.0 | 0.00 | 0.00 | 0.00 | 27 | 1008.4 |
| 20260509154535 | 73 | 101 | 1.0 | 4.0 | 0.00 | 0.00 | 0.00 | 26 | 1008.5 |
| 20260509154030 | 72 | 134 | 1.0 | 2.0 | 0.00 | 0.00 | 0.00 | 27 | 1008.5 |
| 20260509153527 | 71 | 113 | 1.0 | 5.0 | 0.00 | 0.00 | 0.00 | 27 | 1008.6 |
| 20260509153043 | 70 | 135 | 1.0 | 5.0 | 0.00 | 0.00 | 0.00 | 29 | 1008.5 |
| 20260509152529 | 70 | 118 | 0.0 | 4.0 | 0.00 | 0.00 | 0.00 | 29 | 1008.5 |
| 20260509152024 | 69 | 153 | 0.0 | 4.0 | 0.00 | 0.00 | 0.00 | 30 | 1008.6 |
| 20260509151534 | 68 | 158 | 0.0 | 4.0 | 0.00 | 0.00 | 0.00 | 31 | 1008.5 |
| 20260509151030 | 68 | 138 | 0.0 | 4.0 | 0.00 | 0.00 | 0.00 | 31 | 1008.6 |
| 20260509150526 | 67 | 153 | 0.0 | 3.0 | 0.00 | 0.00 | 0.00 | 32 | 1008.7 |
| 20260509150034 | 66 | 208 | 0.0 | 1.0 | 0.00 | 0.00 | 0.00 | 33 | 1008.7 |
| 20260509145529 | 65 | 179 | 0.0 | 2.0 | 0.00 | 0.00 | 0.00 | 34 | 1008.6 |
| 20260509145026 | 64 | 161 | 0.0 | 2.0 | 0.00 | 0.00 | 0.00 | 36 | 1008.7 |
| 20260509144534 | 63 | 38 | 0.0 | 1.0 | 0.00 | 0.00 | 0.00 | 38 | 1008.7 |
| 20260509144033 | 62 | 38 | 0.0 | 0.0 | 0.00 | 0.00 | 0.00 | 39 | 1008.6 |
| 20260509143524 | 61 | 38 | 0.0 | 0.0 | 0.00 | 0.00 | 0.00 | 41 | 1008.6 |
| 20260509143036 | 61 | 39 | 0.0 | 0.0 | 0.00 | 0.00 | 0.00 | 41 | 1008.6 |
| 20260509142532 | 60 | 38 | 0.0 | 0.0 | 0.00 | 0.00 | 0.00 | 43 | 1008.6 |
| 20260509142025 | 60 | 38 | 0.0 | 0.0 | 0.00 | 0.00 | 0.00 | 44 | 1008.5 |
| 20260509141534 | 59 | 39 | 0.0 | 1.0 | 0.00 | 0.00 | 0.00 | 44 | 1008.5 |
| 20260509141029 | 59 | 39 | 0.0 | 2.0 | 0.00 | 0.00 | 0.00 | 45 | 1008.6 |
| 20260509140523 | 58 | 39 | 0.0 | 2.0 | 0.00 | 0.00 | 0.00 | 46 | 1008.6 |
| 20260509140034 | 57 | 32 | 0.0 | 1.0 | 0.00 | 0.00 | 0.00 | 47 | 1008.6 |
| 20260509135532 | 56 | 29 | 0.0 | 0.0 | 0.00 | 0.00 | 0.00 | 51 | 1008.6 |
| 20260509135028 | 55 | 29 | 0.0 | 1.0 | 0.00 | 0.00 | 0.00 | 52 | 1008.6 |
| 20260509134536 | 54 | 29 | 0.0 | 1.0 | 0.00 | 0.00 | 0.00 | 54 | 1008.7 |
| 20260509134030 | 53 | 29 | 0.0 | 0.0 | 0.00 | 0.00 | 0.00 | 56 | 1008.7 |
| 20260509133526 | 52 | 29 | 0.0 | 0.0 | 0.00 | 0.00 | 0.00 | 58 | 1008.8 |
| 20260509133022 | 51 | 29 | 0.0 | 0.0 | 0.00 | 0.00 | 0.00 | 59 | 1008.8 |
| 20260509132533 | 51 | 29 | 0.0 | 0.0 | 0.00 | 0.00 | 0.00 | 61 | 1008.7 |
| 20260509132033 | 50 | 28 | 0.0 | 0.0 | 0.00 | 0.00 | 0.00 | 62 | 1008.6 |
| 20260509131529 | 50 | 29 | 0.0 | 0.0 | 0.00 | 0.00 | 0.00 | 60 | 1008.5 |
| 20260509131023 | 50 | 28 | 0.0 | 0.0 | 0.00 | 0.00 | 0.00 | 62 | 1008.4 |
| 20260509130534 | 50 | 28 | 0.0 | 0.0 | 0.00 | 0.00 | 0.00 | 60 | 1008.3 |
| 20260509130037 | 50 | 29 | 0.0 | 0.0 | 0.00 | 0.00 | 0.00 | 59 | 1008.2 |
| 20260509125525 | 50 | 28 | 0.0 | 0.0 | 0.00 | 0.00 | 0.00 | 58 | 1008.2 |
| 20260509125036 | 51 | 29 | 0.0 | 0.0 | 0.00 | 0.00 | 0.00 | 55 | 1008.1 |
| 20260509124540 | 51 | 28 | 0.0 | 0.0 | 0.00 | 0.00 | 0.00 | 53 | 1007.9 |
| 20260509124025 | 51 | 29 | 0.0 | 0.0 | 0.00 | 0.00 | 0.00 | 52 | 1007.9 |
| 20260509123537 | 51 | 29 | 0.0 | 0.0 | 0.00 | 0.00 | 0.00 | 52 | 1007.9 |
| 20260509123030 | 51 | 29 | 0.0 | 1.0 | 0.00 | 0.00 | 0.00 | 53 | 1007.9 |
| 20260509122526 | 50 | 29 | 0.0 | 3.0 | 0.00 | 0.00 | 0.00 | 55 | 1007.8 |
| 20260509122035 | 50 | 341 | 0.0 | 3.0 | 0.00 | 0.00 | 0.00 | 58 | 1007.8 |
| 20260509121532 | 49 | 24 | 0.0 | 1.0 | 0.00 | 0.00 | 0.00 | 61 | 1007.6 |
| 20260509121027 | 48 | 340 | 0.0 | 2.0 | 0.00 | 0.00 | 0.00 | 63 | 1007.6 |
| 20260509120522 | 48 | 21 | 0.0 | 1.0 | 0.00 | 0.00 | 0.00 | 64 | 1007.5 |
| 20260509120032 | 48 | 239 | 0.0 | 0.0 | 0.00 | 0.00 | 0.00 | 64 | 1007.2 |
| 20260509115532 | 48 | 239 | 0.0 | 0.0 | 0.00 | 0.00 | 0.00 | 63 | 1007.0 |
| 20260509115022 | 48 | 239 | 0.0 | 0.0 | 0.00 | 0.00 | 0.00 | 62 | 1007.1 |
| 20260509114535 | 49 | 239 | 0.0 | 0.0 | 0.00 | 0.00 | 0.00 | 62 | 1007.0 |
| 20260509114028 | 49 | 239 | 0.0 | 0.0 | 0.00 | 0.00 | 0.00 | 61 | 1006.9 |
| 20260509113524 | 49 | 239 | 0.0 | 0.0 | 0.00 | 0.00 | 0.00 | 60 | 1006.9 |
| 20260509113039 | 49 | 239 | 0.0 | 0.0 | 0.00 | 0.00 | 0.00 | 60 | 1006.8 |
| 20260509112530 | 49 | 239 | 0.0 | 0.0 | 0.00 | 0.00 | 0.00 | 60 | 1006.7 |
| 20260509112031 | 49 | 239 | 0.0 | 0.0 | 0.00 | 0.00 | 0.00 | 60 | 1006.7 |
| 20260509111530 | 50 | 239 | 0.0 | 0.0 | 0.00 | 0.00 | 0.00 | 60 | 1006.7 |
| 20260509111035 | 50 | 239 | 0.0 | 0.0 | 0.00 | 0.00 | 0.00 | 60 | 1006.6 |
| 20260509110532 | 50 | 239 | 0.0 | 0.0 | 0.00 | 0.00 | 0.00 | 59 | 1006.6 |
| 20260509110025 | 50 | 239 | 0.0 | 0.0 | 0.00 | 0.00 | 0.00 | 58 | 1006.6 |
| 20260509105523 | 50 | 239 | 0.0 | 0.0 | 0.00 | 0.00 | 0.00 | 57 | 1006.6 |
| 20260509105033 | 51 | 239 | 0.0 | 0.0 | 0.00 | 0.00 | 0.00 | 57 | 1006.6 |
| 20260509104527 | 51 | 239 | 0.0 | 0.0 | 0.00 | 0.00 | 0.00 | 57 | 1006.5 |
| 20260509104022 | 51 | 239 | 0.0 | 0.0 | 0.00 | 0.00 | 0.00 | 56 | 1006.5 |
| 20260509103533 | 51 | 239 | 0.0 | 0.0 | 0.00 | 0.00 | 0.00 | 56 | 1006.5 |
| 20260509103028 | 51 | 239 | 0.0 | 0.0 | 0.00 | 0.00 | 0.00 | 56 | 1006.5 |
| 20260509102522 | 51 | 239 | 0.0 | 0.0 | 0.00 | 0.00 | 0.00 | 55 | 1006.5 |
| 20260509102035 | 51 | 239 | 0.0 | 0.0 | 0.00 | 0.00 | 0.00 | 55 | 1006.4 |
| 20260509101546 | 51 | 239 | 0.0 | 0.0 | 0.00 | 0.00 | 0.00 | 55 | 1006.4 |
| 20260509101023 | 52 | 239 | 0.0 | 0.0 | 0.00 | 0.00 | 0.00 | 54 | 1006.3 |
| 20260509100535 | 52 | 239 | 0.0 | 0.0 | 0.00 | 0.00 | 0.00 | 53 | 1006.3 |
| 20260509100032 | 52 | 239 | 0.0 | 0.0 | 0.00 | 0.00 | 0.00 | 53 | 1006.3 |
| 20260509095526 | 53 | 239 | 0.0 | 1.0 | 0.00 | 0.00 | 0.00 | 52 | 1006.3 |
| 20260509095020 | 53 | 239 | 0.0 | 1.0 | 0.00 | 0.00 | 0.00 | 51 | 1006.3 |
| 20260509094531 | 53 | 239 | 0.0 | 1.0 | 0.00 | 0.00 | 0.00 | 51 | 1006.3 |
| 20260509094025 | 53 | 239 | 0.0 | 1.0 | 0.00 | 0.00 | 0.00 | 50 | 1006.3 |
| 20260509093521 | 53 | 239 | 0.0 | 1.0 | 0.00 | 0.00 | 0.00 | 50 | 1006.2 |
| 20260509093032 | 53 | 239 | 0.0 | 0.0 | 0.00 | 0.00 | 0.00 | 50 | 1006.0 |
| 20260509092529 | 53 | 239 | 0.0 | 0.0 | 0.00 | 0.00 | 0.00 | 51 | 1006.0 |
| 20260509092023 | 54 | 249 | 0.0 | 0.0 | 0.00 | 0.00 | 0.00 | 52 | 1006.0 |
| 20260509091521 | 54 | 248 | 0.0 | 0.0 | 0.00 | 0.00 | 0.00 | 51 | 1006.1 |
| 20260509091031 | 54 | 249 | 0.0 | 0.0 | 0.00 | 0.00 | 0.00 | 50 | 1006.1 |
| 20260509090526 | 54 | 248 | 0.0 | 0.0 | 0.00 | 0.00 | 0.00 | 51 | 1006.1 |
| 20260509090033 | 54 | 259 | 0.0 | 0.0 | 0.00 | 0.00 | 0.00 | 50 | 1006.2 |
| 20260509085531 | 54 | 260 | 0.0 | 0.0 | 0.00 | 0.00 | 0.00 | 50 | 1006.1 |
| 20260509085028 | 54 | 259 | 0.0 | 0.0 | 0.00 | 0.00 | 0.00 | 50 | 1006.0 |
| 20260509084525 | 54 | 259 | 0.0 | 1.0 | 0.00 | 0.00 | 0.00 | 49 | 1006.0 |
| 20260509084035 | 55 | 259 | 0.0 | 1.0 | 0.00 | 0.00 | 0.00 | 49 | 1005.9 |
| 20260509083529 | 55 | 259 | 0.0 | 0.0 | 0.00 | 0.00 | 0.00 | 49 | 1005.9 |
| 20260509083033 | 55 | 259 | 0.0 | 1.0 | 0.00 | 0.00 | 0.00 | 49 | 1006.0 |
| 20260509082533 | 55 | 259 | 0.0 | 1.0 | 0.00 | 0.00 | 0.00 | 49 | 1005.9 |
| 20260509082027 | 55 | 259 | 0.0 | 0.0 | 0.00 | 0.00 | 0.00 | 48 | 1005.9 |
| 20260509081524 | 55 | 259 | 0.0 | 0.0 | 0.00 | 0.00 | 0.00 | 48 | 1005.9 |
| 20260509081032 | 55 | 259 | 0.0 | 0.0 | 0.00 | 0.00 | 0.00 | 48 | 1005.9 |
| 20260509080528 | 55 | 259 | 0.0 | 0.0 | 0.00 | 0.00 | 0.00 | 48 | 1006.0 |
| 20260509080027 | 56 | 259 | 0.0 | 0.0 | 0.00 | 0.00 | 0.00 | 48 | 1005.9 |
| 20260509075536 | 56 | 259 | 0.0 | 0.0 | 0.00 | 0.00 | 0.00 | 47 | 1006.0 |
| 20260509075029 | 56 | 259 | 0.0 | 0.0 | 0.00 | 0.00 | 0.00 | 47 | 1006.0 |
| 20260509074526 | 56 | 267 | 0.0 | 1.0 | 0.00 | 0.00 | 0.00 | 48 | 1006.1 |
| 20260509074034 | 56 | 267 | 0.0 | 1.0 | 0.00 | 0.00 | 0.00 | 48 | 1006.1 |
| 20260509073534 | 56 | 264 | 0.0 | 0.0 | 0.00 | 0.00 | 0.00 | 48 | 1006.1 |
| 20260509073031 | 56 | 264 | 0.0 | 1.0 | 0.00 | 0.00 | 0.00 | 48 | 1006.0 |
| 20260509072524 | 56 | 264 | 0.0 | 1.0 | 0.00 | 0.00 | 0.00 | 47 | 1006.1 |
| 20260509072033 | 56 | 264 | 0.0 | 1.0 | 0.00 | 0.00 | 0.00 | 47 | 1006.1 |
| 20260509071535 | 56 | 100 | 0.0 | 1.0 | 0.00 | 0.00 | 0.00 | 46 | 1006.1 |
| 20260509071023 | 56 | 101 | 0.0 | 1.0 | 0.00 | 0.00 | 0.00 | 47 | 1006.1 |
| 20260509070534 | 56 | 100 | 0.0 | 0.0 | 0.00 | 0.00 | 0.00 | 47 | 1006.1 |
| 20260509070030 | 56 | 100 | 0.0 | 0.0 | 0.00 | 0.00 | 0.00 | 47 | 1006.1 |
| 20260509065525 | 56 | 100 | 0.0 | 0.0 | 0.00 | 0.00 | 0.00 | 47 | 1006.0 |
| 20260509065035 | 56 | 100 | 0.0 | 0.0 | 0.00 | 0.00 | 0.00 | 46 | 1006.1 |
| 20260509064527 | 56 | 101 | 0.0 | 0.0 | 0.00 | 0.00 | 0.00 | 45 | 1006.1 |
| 20260509064036 | 57 | 101 | 0.0 | 0.0 | 0.00 | 0.00 | 0.00 | 44 | 1006.0 |
| 20260509063530 | 57 | 100 | 0.0 | 0.0 | 0.00 | 0.00 | 0.00 | 44 | 1006.0 |
| 20260509063024 | 57 | 101 | 0.0 | 0.0 | 0.00 | 0.00 | 0.00 | 45 | 1006.1 |
| 20260509062535 | 57 | 100 | 0.0 | 0.0 | 0.00 | 0.00 | 0.00 | 44 | 1006.2 |
| 20260509062031 | 58 | 100 | 0.0 | 0.0 | 0.00 | 0.00 | 0.00 | 44 | 1006.1 |
| 20260509061525 | 58 | 101 | 0.0 | 0.0 | 0.00 | 0.00 | 0.00 | 43 | 1006.1 |
| 20260509061025 | 58 | 101 | 0.0 | 0.0 | 0.00 | 0.00 | 0.00 | 43 | 1006.1 |
| 20260509060532 | 58 | 101 | 0.0 | 0.0 | 0.00 | 0.00 | 0.00 | 43 | 1006.2 |
| 20260509060027 | 59 | 100 | 0.0 | 0.0 | 0.00 | 0.00 | 0.00 | 42 | 1006.2 |
| 20260509055539 | 59 | 100 | 0.0 | 0.0 | 0.00 | 0.00 | 0.00 | 41 | 1006.3 |
| 20260509055030 | 59 | 101 | 0.0 | 0.0 | 0.00 | 0.00 | 0.00 | 41 | 1006.3 |
| 20260509054534 | 60 | 100 | 0.0 | 0.0 | 0.00 | 0.00 | 0.00 | 40 | 1006.3 |
| 20260509054028 | 60 | 100 | 0.0 | 0.0 | 0.00 | 0.00 | 0.00 | 38 | 1006.3 |
| 20260509053521 | 61 | 101 | 0.0 | 0.0 | 0.00 | 0.00 | 0.00 | 37 | 1006.3 |
| 20260509053051 | 61 | 101 | 0.0 | 0.0 | 0.00 | 0.00 | 0.00 | 37 | 1006.3 |
| 20260509052528 | 62 | 100 | 0.0 | 0.0 | 0.00 | 0.00 | 0.00 | 36 | 1006.4 |
| 20260509052023 | 62 | 100 | 0.0 | 0.0 | 0.00 | 0.00 | 0.00 | 33 | 1006.4 |
| 20260509051542 | 62 | 100 | 0.0 | 0.0 | 0.00 | 0.00 | 0.00 | 32 | 1006.4 |
| 20260509051029 | 62 | 101 | 0.0 | 0.0 | 0.00 | 0.00 | 0.00 | 32 | 1006.4 |
| 20260509050523 | 62 | 100 | 0.0 | 0.0 | 0.00 | 0.00 | 0.00 | 33 | 1006.5 |
| 20260509050034 | 62 | 101 | 0.0 | 0.0 | 0.00 | 0.00 | 0.00 | 34 | 1006.6 |
| 20260509045531 | 63 | 101 | 0.0 | 0.0 | 0.00 | 0.00 | 0.00 | 35 | 1006.6 |
| 20260509045024 | 62 | 100 | 0.0 | 0.0 | 0.00 | 0.00 | 0.00 | 34 | 1006.6 |
| 20260509044534 | 63 | 100 | 0.0 | 0.0 | 0.00 | 0.00 | 0.00 | 35 | 1006.5 |
| 20260509044029 | 63 | 101 | 0.0 | 0.0 | 0.00 | 0.00 | 0.00 | 36 | 1006.5 |
| 20260509043524 | 63 | 100 | 0.0 | 0.0 | 0.00 | 0.00 | 0.00 | 35 | 1006.4 |
| 20260509043036 | 63 | 359 | 0.0 | 1.0 | 0.00 | 0.00 | 0.00 | 35 | 1006.4 |
| 20260509042531 | 63 | 358 | 0.0 | 1.0 | 0.00 | 0.00 | 0.00 | 34 | 1006.3 |
| 20260509042026 | 64 | 359 | 0.0 | 0.0 | 0.00 | 0.00 | 0.00 | 34 | 1006.2 |
| 20260509041522 | 64 | 359 | 0.0 | 1.0 | 0.00 | 0.00 | 0.00 | 33 | 1006.2 |
| 20260509041031 | 64 | 358 | 0.0 | 0.0 | 0.00 | 0.00 | 0.00 | 33 | 1006.2 |
| 20260509040527 | 64 | 359 | 0.0 | 0.0 | 0.00 | 0.00 | 0.00 | 34 | 1006.1 |
| 20260509040029 | 64 | 358 | 0.0 | 0.0 | 0.00 | 0.00 | 0.00 | 34 | 1006.0 |
| 20260509035535 | 64 | 359 | 0.0 | 0.0 | 0.00 | 0.00 | 0.00 | 34 | 1006.0 |
| 20260509035031 | 64 | 359 | 0.0 | 0.0 | 0.00 | 0.00 | 0.00 | 33 | 1006.0 |
| 20260509034539 | 64 | 358 | 0.0 | 0.0 | 0.00 | 0.00 | 0.00 | 34 | 1005.9 |
| 20260509034028 | 64 | 359 | 0.0 | 0.0 | 0.00 | 0.00 | 0.00 | 34 | 1005.8 |
| 20260509033524 | 65 | 359 | 0.0 | 0.0 | 0.00 | 0.00 | 0.00 | 34 | 1005.7 |
| 20260509033035 | 65 | 358 | 0.0 | 0.0 | 0.00 | 0.00 | 0.00 | 34 | 1005.6 |
| 20260509032530 | 65 | 358 | 0.0 | 0.0 | 0.00 | 0.00 | 0.00 | 33 | 1005.6 |
| 20260509032023 | 66 | 358 | 0.0 | 0.0 | 0.00 | 0.00 | 0.00 | 31 | 1005.4 |
| 20260509031550 | 66 | 358 | 0.0 | 0.0 | 0.00 | 0.00 | 0.00 | 29 | 1005.4 |
| 20260509031030 | 67 | 358 | 0.0 | 0.0 | 0.00 | 0.00 | 0.00 | 28 | 1005.2 |
| 20260509030526 | 67 | 358 | 0.0 | 0.0 | 0.00 | 0.00 | 0.00 | 26 | 1005.2 |
| 20260509030057 | 68 | 358 | 0.0 | 0.0 | 0.00 | 0.00 | 0.00 | 27 | 1005.0 |
| 20260509025527 | 69 | 358 | 0.0 | 0.0 | 0.00 | 0.00 | 0.00 | 25 | 1005.0 |
| 20260509025023 | 69 | 359 | 0.0 | 0.0 | 0.00 | 0.00 | 0.00 | 24 | 1004.9 |
| 20260509024539 | 70 | 359 | 0.0 | 0.0 | 0.00 | 0.00 | 0.00 | 22 | 1004.8 |
| 20260509024029 | 70 | 358 | 0.0 | 0.0 | 0.00 | 0.00 | 0.00 | 20 | 1004.6 |
| 20260509023524 | 71 | 359 | 0.0 | 0.0 | 0.00 | 0.00 | 0.00 | 20 | 1004.5 |
| 20260509023037 | 71 | 358 | 0.0 | 0.0 | 0.00 | 0.00 | 0.00 | 19 | 1004.4 |
| 20260509022531 | 72 | 358 | 0.0 | 0.0 | 0.00 | 0.00 | 0.00 | 19 | 1004.3 |
| 20260509022026 | 73 | 358 | 0.0 | 0.0 | 0.00 | 0.00 | 0.00 | 19 | 1004.3 |
| 20260509021534 | 74 | 358 | 0.0 | 0.0 | 0.00 | 0.00 | 0.00 | 18 | 1004.3 |
| 20260509021033 | 74 | 359 | 0.0 | 0.0 | 0.00 | 0.00 | 0.00 | 16 | 1004.2 |
| 20260509020527 | 75 | 358 | 0.0 | 0.0 | 0.00 | 0.00 | 0.00 | 16 | 1004.2 |
| 20260509020035 | 76 | 359 | 0.0 | 0.0 | 0.00 | 0.00 | 0.00 | 16 | 1004.1 |
| 20260509015530 | 77 | 358 | 0.0 | 0.0 | 0.00 | 0.00 | 0.00 | 16 | 1004.1 |
| 20260509015025 | 78 | 358 | 0.0 | 0.0 | 0.00 | 0.00 | 0.00 | 16 | 1004.1 |
| 20260509014520 | 79 | 358 | 0.0 | 1.0 | 0.00 | 0.00 | 0.00 | 16 | 1004.0 |
| 20260509014033 | 80 | 358 | 0.0 | 1.0 | 0.00 | 0.00 | 0.00 | 16 | 1004.0 |
| 20260509013531 | 81 | 358 | 0.0 | 0.0 | 0.00 | 0.00 | 0.00 | 14 | 1003.9 |
| 20260509013022 | 83 | 358 | 0.0 | 1.0 | 0.00 | 0.00 | 0.00 | 13 | 1003.9 |
| 20260509012532 | 84 | 359 | 0.0 | 1.0 | 0.00 | 0.00 | 0.00 | 12 | 1003.9 |
| 20260509012031 | 84 | 358 | 0.0 | 1.0 | 0.00 | 0.00 | 0.00 | 11 | 1003.9 |
| 20260509011539 | 85 | 354 | 0.0 | 5.0 | 0.00 | 0.00 | 0.00 | 10 | 1003.8 |
| 20260509011031 | 85 | 40 | 1.0 | 5.0 | 0.00 | 0.00 | 0.00 | 10 | 1003.8 |
| 20260509010523 | 85 | 29 | 2.0 | 7.0 | 0.00 | 0.00 | 0.00 | 10 | 1003.9 |
| 20260509010032 | 85 | 46 | 2.0 | 7.0 | 0.00 | 0.00 | 0.00 | 10 | 1003.8 |
| 20260509005528 | 86 | 39 | 0.0 | 6.0 | 0.00 | 0.00 | 0.00 | 10 | 1003.8 |
| 20260509005024 | 86 | 19 | 2.0 | 6.0 | 0.00 | 0.00 | 0.00 | 9 | 1003.8 |
| 20260509004547 | 86 | 32 | 1.0 | 7.0 | 0.00 | 0.00 | 0.00 | 9 | 1003.8 |
| 20260509004028 | 86 | 21 | 2.0 | 7.0 | 0.00 | 0.00 | 0.00 | 9 | 1003.9 |
| 20260509003524 | 86 | 5 | 3.0 | 7.0 | 0.00 | 0.00 | 0.00 | 9 | 1003.8 |
| 20260509003041 | 87 | 29 | 1.0 | 4.0 | 0.00 | 0.00 | 0.00 | 9 | 1003.9 |
| 20260509002528 | 87 | 22 | 1.0 | 8.0 | 0.00 | 0.00 | 0.00 | 9 | 1003.9 |
| 20260509002028 | 87 | 349 | 2.0 | 8.0 | 0.00 | 0.00 | 0.00 | 8 | 1003.8 |
| 20260509001538 | 88 | 335 | 2.0 | 8.0 | 0.00 | 0.00 | 0.00 | 9 | 1003.9 |
| 20260509001030 | 88 | 34 | 3.0 | 8.0 | 0.00 | 0.00 | 0.00 | 9 | 1003.9 |
| 20260509000531 | 88 | 355 | 0.0 | 6.0 | 0.00 | 0.00 | 0.00 | 10 | 1003.9 |
| 20260509000027 | 88 | 32 | 2.0 | 6.0 | 0.00 | 0.00 | 0.00 | 8 | 1003.9 |
| 20260508235524 | 88 | 284 | 2.0 | 8.0 | 0.00 | 0.00 | 0.00 | 8 | 1004.0 |
| 20260508235034 | 88 | 345 | 3.0 | 8.0 | 0.00 | 0.00 | 0.00 | 9 | 1004.1 |
| 20260508234528 | 89 | 18 | 1.0 | 4.0 | 0.00 | 0.00 | 0.00 | 9 | 1004.0 |
| 20260508234025 | 89 | 356 | 1.0 | 4.0 | 0.00 | 0.00 | 0.00 | 9 | 1004.1 |
| 20260508233535 | 89 | 15 | 1.0 | 10.0 | 0.00 | 0.00 | 0.00 | 9 | 1004.0 |
| 20260508233031 | 88 | 304 | 2.0 | 10.0 | 0.00 | 0.00 | 0.00 | 9 | 1004.1 |
| 20260508232527 | 88 | 338 | 1.0 | 11.0 | 0.00 | 0.00 | 0.00 | 10 | 1004.1 |
| 20260508232022 | 89 | 41 | 3.0 | 15.0 | 0.00 | 0.00 | 0.00 | 8 | 1004.1 |
| 20260508231533 | 89 | 7 | 2.0 | 7.0 | 0.00 | 0.00 | 0.00 | 9 | 1004.2 |
| 20260508231026 | 89 | 148 | 2.0 | 7.0 | 0.00 | 0.00 | 0.00 | 8 | 1004.0 |
| 20260508230532 | 89 | 46 | 3.0 | 8.0 | 0.00 | 0.00 | 0.00 | 8 | 1004.1 |
| 20260508230026 | 89 | 53 | 3.0 | 8.0 | 0.00 | 0.00 | 0.00 | 9 | 1004.2 |
| 20260508225521 | 89 | 65 | 2.0 | 7.0 | 0.00 | 0.00 | 0.00 | 9 | 1004.2 |
| 20260508225032 | 90 | 37 | 2.0 | 7.0 | 0.00 | 0.00 | 0.00 | 9 | 1004.2 |
| 20260508224533 | 91 | 326 | 1.0 | 6.0 | 0.00 | 0.00 | 0.00 | 10 | 1004.1 |
| 20260508224024 | 90 | 269 | 0.0 | 3.0 | 0.00 | 0.00 | 0.00 | 10 | 1004.3 |
| 20260508223534 | 89 | 170 | 0.0 | 4.0 | 0.00 | 0.00 | 0.00 | 10 | 1004.3 |
| 20260508223042 | 89 | 284 | 0.0 | 4.0 | 0.00 | 0.00 | 0.00 | 9 | 1004.4 |
| 20260508222537 | 89 | 340 | 0.0 | 12.0 | 0.00 | 0.00 | 0.00 | 10 | 1004.4 |
| 20260508222033 | 89 | 11 | 2.0 | 11.0 | 0.00 | 0.00 | 0.00 | 9 | 1004.6 |
| 20260508221525 | 89 | 58 | 3.0 | 11.0 | 0.00 | 0.00 | 0.00 | 10 | 1004.7 |
| 20260508221023 | 89 | 77 | 1.0 | 10.0 | 0.00 | 0.00 | 0.00 | 10 | 1004.6 |
| 20260508220530 | 89 | 34 | 4.0 | 10.0 | 0.00 | 0.00 | 0.00 | 9 | 1004.7 |
| 20260508220027 | 89 | 103 | 2.0 | 8.0 | 0.00 | 0.00 | 0.00 | 9 | 1004.8 |
| 20260508215521 | 90 | 41 | 3.0 | 8.0 | 0.00 | 0.00 | 0.00 | 9 | 1004.8 |
| 20260508215032 | 90 | 34 | 1.0 | 8.0 | 0.00 | 0.00 | 0.00 | 10 | 1004.8 |